This demonstration page uses our WeatherBlox Daily Observations layout. Learn more.

Left ArrowRight Arrow

41.86663, -103.66717

Hourly Observations for June 21, 2020

Temp ( °F °C ) Dew Point ( °F °C ) Humidity (%) Winds ( mph kmh ) Pressure ( in mb ) Visibility ( mi km ) Precip ( " mm )
12:53 am 00:53 Mostly Clear 65 18.3 49 9.4 56 56 E 10 17 29.78 1009 10 16 0.00 0.00
1:53 am 01:53 Partly Cloudy 66 18.9 49 9.4 54 54 SE 13 20 29.75 1007 10 16 0.00 0.00
2:53 am 02:53 Partly Cloudy 63 17.2 50 10 63 63 SE 10 17 29.74 1007 10 16 0.00 0.00
3:53 am 03:53 Mostly Clear 62 16.7 49 9.4 62 62 ESE 6 9 29.72 1007 10 16 0.00 0.00
4:53 am 04:53 Clear 64 17.8 45 7.2 50 50 W 15 24 29.72 1007 10 16 0.00 0.00
5:53 am 05:53 Sunny 60 15.6 50 10 70 70 WNW 15 24 29.77 1008 10 16 0.00 0.00
6:53 am 06:53 Sunny 60 15.6 51 10.6 72 72 W 12 19 29.80 1009 10 16 0.00 0.00
7:53 am 07:53 Sunny 66 18.9 49 9.4 54 54 W 14 22 29.82 1010 10 16 0.00 0.00
8:53 am 08:53 Sunny 72 22.2 50 10 46 46 WNW 14 22 29.82 1010 10 16 0.00 0.00
9:53 am 09:53 Sunny 76 24.4 51 10.6 42 42 WNW 13 20 29.82 1010 10 16 0.00 0.00
10:53 am 10:53 Sunny 79 26.1 51 10.6 38 38 W 10 17 29.83 1010 10 16 0.00 0.00
11:53 am 11:53 Sunny 81 27.2 49 9.4 33 33 WNW 8 13 29.83 1010 10 16 0.00 0.00
12:53 pm 12:53 Sunny 84 28.9 45 7.2 25 25 NW 13 20 29.80 1009 10 16 0.00 0.00
1:53 pm 13:53 Sunny 85 29.4 45 7.2 25 25 NNW 9 15 29.78 1009 10 16 0.00 0.00
2:53 pm 14:53 Sunny 85 29.4 42 5.6 22 22 W 8 13 29.77 1008 10 16 0.00 0.00
3:53 pm 15:53 Cloudy 74 23.3 49 9.4 41 41 W 20 31 29.83 1010 8 13 0.00 0.00
4:53 pm 16:53 Mostly Cloudy 71 21.7 53 11.7 53 53 NNW 14 22 29.84 1010 10 16 0.00 0.00
5:53 pm 17:53 Sunny 74 23.3 51 10.6 45 45 NW 10 17 29.81 1009 10 16 0.00 0.00
6:53 pm 18:53 Mostly Sunny 76 24.4 49 9.4 39 39 Calm 29.80 1009 10 16 0.00 0.00
7:53 pm 19:53 Sunny 73 22.8 50 10 44 44 undefined N/A 29.80 1009 10 16 0.00 0.00
8:53 pm 20:53 Mostly Cloudy 67 19.4 53 11.7 61 61 N 6 9 29.82 1010 10 16 0.00 0.00
9:28 pm 21:28 Mostly Clear 66 19 54 12 64 64 NNE 7 11 29.81 1009 10 16 0.00 0.00
9:53 pm 21:53 Mostly Clear 64 17.8 53 11.7 68 68 NNE 6 9 29.87 1012 10 16 0.00 0.00
10:53 pm 22:53 Clear 62 16.7 53 11.7 73 73 NNE 3 6 29.88 1012 10 16 0.00 0.00
11:53 pm 23:53 Mostly Cloudy 62 16.7 53 11.7 73 73 Calm 29.90 1013 10 16 0.00 0.00

Powered by AerisWeather